Regional Weather Roundup
Issued by NWS Sterling, VA

Home | Current Version | Previous Version | Graphics & Text | Print | Product List | Glossary On
Versions: 1 2 3 4 5 6 7 8 9 10 11 12 13 14 15 16 17 18 19 20 21 22 23 24 25 26 27 28 29 30 31 32 33 34 35 36 37 38 39 40 41 42 43 44 45 46 47 48 49 50
000
ASUS41 KLWX 140310
RWRLWX

REGIONAL WEATHER ROUNDUP
NATIONAL WEATHER SERVICE BALTIMORE MD/WASHINGTON DC
1000 PM EST SAT FEB 13 2016

Note: "FAIR" indicates few or no clouds below 12,000 feet
with no significant weather and/or obstructions to visibility.
 TC=TEMPERATURE CELSIUS

 * =Non NWS site. Station does not report precipitation (e.g. rain,
    snow, etc.), thunder, or fog.

DCZ001-MDZ009-015-VAZ040>042-051-053>054-140400-
WASHINGTON METRO

CITY           SKY/WX    TMP DP  RH WIND       PRES   REMARKS
WASHINGTON NAT FAIR      16  -7  35 NW16      30.46R WCI   1
DULLES         FAIR      14  -7  38 NW18      30.44R WCI  -3
ANDREWS AFB    CLEAR     15  -7  36 W24G33    30.41S WCI  -4
FT BELVOIR     FAIR      16  -9  33 NW12G24   30.46R WCI   3
QUANTICO       FAIR      18  -6  34 NW14G26   30.47S WCI   4
LEESBURG*      FAIR      16   0  48 NW16      30.43S WCI   0
MANASSAS*      CLEAR    N/A N/A N/A NW14      30.46R
GAITHERSBURG*  CLEAR     10  -6  48 NW7G20    30.43S

$$

MDZ006>007-011-014-140400-
BALTIMORE METRO

CITY           SKY/WX    TMP DP  RH WIND       PRES   REMARKS
BWI AIRPORT    PTCLDY    14  -3  47 NW13G24   30.41R WCI   0
MD SCIENCE CTR   N/A     15  -5  40 MISG      30.42R
MARTIN STATE   CLEAR     18   0  45 W10       30.43R WCI   6
ANNAPOLIS      CLEAR     16  -1  47 NW13G20   30.43R WCI   2
FORT MEADE*    CLEAR     14  -2  48 W12       30.45R WCI   0

$$

MDZ012-015-019>023-140400-
MARYLAND EASTERN SHORE

CITY           SKY/WX    TMP DP  RH WIND       PRES   REMARKS
OCEAN CITY     PTCLDY    17  -3  41 NW12G22   30.39S WCI   4
SALISBURY      CLEAR     17  -4  39 NW15G24   30.40R WCI   2
BAY BRIDGE AP*   N/A     18  -2  41 W10       30.43R WCI   6
EASTON*        PTCLDY    17  -2  42 NW20G25   30.45  WCI   1

$$

MDZ017>025-140400-
SOUTHERN MARYLAND

CITY           SKY/WX    TMP DP  RH WIND       PRES   REMARKS
PATUXENT RIVER PTCLDY    17  -6  35 NW21G28   30.43S WCI   0
ST INIGOES     CLEAR     17  -5  37 NW13G20   30.44R WCI   4
LEONARDTOWN*   CLEAR     18  -8  32 MISG        N/A

$$

MDZ003>005-140400-
NORTH CENTRAL MARYLAND

CITY           SKY/WX    TMP DP  RH WIND       PRES   REMARKS
FREDERICK*     PTCLDY    14   1  57 W15G22    30.45S WCI  -1
HAGERSTOWN APT MOCLDY    11  -4  51 NW12      30.39R WCI  -3
WESTMINSTER*   PTCLDY    10   0  61 NW12      30.35R WCI  -4

$$

MDZ501>502-140400-
WESTERN MARYLAND

CITY           SKY/WX    TMP DP  RH WIND       PRES   REMARKS
OAKLAND*       PTCLDY     0  -8  71 W12G18    30.18S WCI -18
CUMBERLAND*    NOT AVBL

$$

VAZ025>031-140400-
SHENANDOAH VALLEY

CITY           SKY/WX    TMP DP  RH WIND       PRES   REMARKS
WINCHESTER*    FAIR      14  -4  44 NW14G20   30.41R WCI  -1
FRONT ROYAL*   FAIR      14  -6  41 NW10      30.40R WCI   1
LURAY*         MOCLDY    14  -6  41 N8G21     30.40S WCI   3
NEW MARKET*    FAIR      12  -7  42 CALM      30.40S
STAUNTON*      FAIR      16  -5  38 NW10      30.39S WCI   4
WAYNESBORO*    FAIR      10 -10  38 NW6       30.35F

$$

WVZ021-048>050-054>055-140400-
EASTERN WEST VIRGINIA PANHANDLE

CITY           SKY/WX    TMP DP  RH WIND       PRES   REMARKS
MARTINSBURG    MOCLDY    12  -6  44 NW13G18   30.42S WCI  -3
PETERSBURG*    FAIR      12  -4  49 CALM      30.44S

$$

VAZ036>039-050-140400-
CENTRAL FOOTHILLS

CITY           SKY/WX    TMP DP  RH WIND       PRES   REMARKS
CHARLOTTESVILL FAIR      15  -8  35 NW5       30.42R
CULPEPER*      FAIR      13  -4  46 CALM      30.46R
ORANGE*        FAIR      18  -4  38 CALM      30.45R
GORDONSVILLE*  FAIR      16  -6  37 SW5       30.43R
WARRENTON*     FAIR      16   0  49 NW9G18    30.44S WCI   4

$$

VAZ055>057-140400-
NORTH AND CENTRAL PIEDMONT

CITY           SKY/WX    TMP DP  RH WIND       PRES   REMARKS
FREDERICKSBRG* FAIR      17  -4  39 NW5G17    30.46R
STAFFORD*      FAIR      15  -7  37 NW3       30.50R

$$

NCZ024-NYZ072-PAZ021-071-VAZ022-071-140400-
OTHER REGIONAL OBSERVATIONS

CITY           SKY/WX    TMP DP  RH WIND       PRES   REMARKS
NEW YORK CITY  CLEAR      6 -15  37 NW15G23   30.33S WCI -12
PHILADELPHIA   PTCLDY    14  -7  38 W12       30.37S WCI   0
PITTSBURGH     PTCLDY     4  -2  76 W5        30.40S
ROANOKE        FAIR      15  -5  40 NW8       30.42R WCI   4
RICHMOND       FAIR      17  -4  39 N12       30.45R WCI   4
RALEIGH        CLEAR     24  -1  33 N6        30.44R

$$

ANZ530>537-140400-
MARINE OBSERVATIONS

STATION/POSITION TIME  TEMP    WIND        PRES
                       AIR SEA DIR/SP/G
                 (UTC) (F)     (DEG/KT/KT) (MB)
THOMAS PT LIGHT  0300   16 35  320/ 21/ 25 1030.9S
BALT KEY BRIDGE  0200   17                 1029.5R
COVE POINT       0200   17                 1031.0R
LEWISETTA        0200   20 35              1030.5R
SOLOMONS ISLAND  0200   18 38                N/A
PINEY POINT      0200          350/ 26/ 30   N/A

$$




USA.gov is the U.S. government's official web portal to all federal, state and local government web resources and services.